Flag for U.S.A. Weather past 2 weeks in Peoria, Illinois, U.S.A.

Now
70 °F

Sunny.


Feels Like: 76 °F
Forecast: 61 / 79 °F
Wind: 7 mph from South

Location: Greater Peoria Regional Airport

Current Time: Sep 19, 2014 at 7:47:05 PM

Latest Report: Sep 19, 2014 at 6:54 PM


Visibility: 10 mi

Pressure: 29.98 "Hg

Humidity: 57%

Dew point: 54 °F

Location of PeoriaLocation

Historic Weather in Peoria — Graph

°F

Peoria temperature yesterday

Maximum temperature yesterday: 75 °F (at 1:54 PM)
Minimum temperature yesterday: 51 °F (at 5:54 AM)
Average temperature yesterday: 63 °F

Past Weeks' High & Low Weather Summary

 TemperatureHumidityPressure
High89 °F (Sep 5, 1:54 PM)93% (Sep 10, 1:54 AM)30.41 "Hg (Sep 10, 1:54 AM)
Low41 °F (Sep 13, 5:54 AM)39% (Sep 8, 3:54 PM)29.58 "Hg (Sep 10, 5:54 AM)
Average62 °F73%30.10 "Hg
* Reported Sep 4 6:54 PM — Sep 19 6:54 PM, Peoria, Weather by CustomWeather, © 2014

Note: Actual official high and low records may vary slightly from our data, if they occured in-between our weather recording intervals... More about our weather records

Advertising

Peoria weather history for previous 24 hours

 ConditionsComfort  
Time TempWeatherWind HumidityBarometerVisibility
6:54 PM
Sep 19
70 °FSunny.7 mph57%29.98 "Hg10 mi
5:54 PM75 °FSunny.9 mph48%29.99 "Hg10 mi
4:54 PM77 °FSunny.13 mph44%29.99 "Hg10 mi
3:54 PM78 °FSunny.14 mph40%30.00 "Hg10 mi
2:54 PM78 °FSunny.10 mph42%30.02 "Hg10 mi
1:54 PM76 °FSunny.10 mph45%30.05 "Hg10 mi
12:54 PM75 °FSunny.15 mph47%30.08 "Hg10 mi
11:54 AM73 °FSunny.10 mph48%30.10 "Hg10 mi
10:54 AM70 °FSunny.8 mph55%30.12 "Hg10 mi
9:54 AM65 °FSunny.8 mph63%30.12 "Hg10 mi
8:54 AM60 °FSunny.3 mph72%30.13 "Hg10 mi
7:54 AM57 °FSunny.3 mph81%30.13 "Hg8 mi
6:54 AM52 °FClear.No wind86%30.12 "Hg8 mi
5:54 AM52 °FFog.No wind89%30.11 "Hg6 mi
4:54 AM53 °FFog.3 mph86%30.11 "Hg6 mi
3:54 AM54 °FClear.3 mph83%30.10 "Hg9 mi
2:54 AM55 °FClear.6 mph87%30.10 "Hg8 mi
1:54 AM57 °FClear.8 mph83%30.12 "Hg8 mi
12:54 AM58 °FClear.9 mph81%30.11 "Hg10 mi
11:54 PM
Sep 18
59 °FClear.9 mph78%30.11 "Hg10 mi
10:54 PM60 °FClear.9 mph69%30.11 "Hg10 mi
9:54 PM61 °FClear.6 mph65%30.10 "Hg10 mi
8:54 PM60 °FClear.5 mph69%30.09 "Hg10 mi
7:54 PM62 °FSunny.5 mph67%30.08 "Hg10 mi
Weather by CustomWeather, © 2014

See weather overviewHow to use our weather pages